N5BAB Weather Reports


Display with metric or nautical units.
time (UTC)temp
F
wind
direction
speed
MPH
gust
MPH
rain 1hr
in
rain 24hr
in
rain mn
in
humidity
%
barometer
mb
20260505125038 68 201 5.0 16.0 0.00 0.00 0.00 85 1006.7
20260505124547 68 197 6.0 16.0 0.00 0.00 0.00 85 1006.6
20260505124039 68 201 7.0 20.0 0.00 0.00 0.00 85 1006.7
20260505123539 68 218 7.0 20.0 0.00 0.00 0.00 85 1006.6
20260505123108 68 199 7.0 15.0 0.00 0.00 0.00 84 1006.6
20260505122538 68 204 6.0 16.0 0.00 0.00 0.00 84 1006.5
20260505122038 68 222 7.0 16.0 0.00 0.00 0.00 84 1006.6
20260505121549 68 198 5.0 17.0 0.00 0.00 0.00 84 1006.4
20260505121038 68 208 7.0 17.0 0.00 0.00 0.00 84 1006.2
20260505120542 68 211 7.0 17.0 0.00 0.00 0.00 84 1006.2
20260505120051 68 185 6.0 16.0 0.00 0.00 0.00 84 1006.2
20260505115542 68 185 6.0 18.0 0.00 0.00 0.00 84 1006.2
20260505115039 68 216 8.0 18.0 0.00 0.00 0.00 84 1006.3
20260505114612 68 167 6.0 18.0 0.00 0.00 0.00 84 1006.1
20260505114042 68 195 9.0 18.0 0.00 0.00 0.00 84 1006.2
20260505113546 68 203 8.0 19.0 0.00 0.00 0.00 84 1006.1
20260505113044 68 203 8.0 19.0 0.00 0.00 0.00 84 1006.1
20260505112541 68 176 8.0 21.0 0.00 0.00 0.00 84 1006.1
20260505112041 67 204 6.0 21.0 0.00 0.00 0.00 84 1006.0
20260505111604 67 198 7.0 19.0 0.00 0.00 0.00 84 1005.9
20260505111041 67 240 9.0 19.0 0.00 0.00 0.00 84 1005.7
20260505110541 67 159 6.0 19.0 0.00 0.00 0.00 84 1005.6
20260505102040 67 157 9.0 17.0 0.00 0.00 0.00 83 1005.7
20260505101549 67 255 9.0 18.0 0.00 0.00 0.00 84 1005.6
20260505101041 67 179 7.0 18.0 0.00 0.00 0.00 83 1005.7
20260505100542 67 167 7.0 20.0 0.00 0.00 0.00 83 1005.7
20260505100052 67 191 9.0 24.0 0.00 0.00 0.00 83 1005.6
20260505095540 67 163 10.0 24.0 0.00 0.00 0.00 83 1005.7
20260505095038 67 176 8.0 18.0 0.00 0.00 0.00 83 1005.8
20260505094548 67 186 8.0 18.0 0.00 0.00 0.00 83 1005.8
20260505094042 67 172 7.0 16.0 0.00 0.00 0.00 83 1005.9
20260505093542 67 207 6.0 16.0 0.00 0.00 0.00 83 1006.0
20260505093053 67 165 8.0 16.0 0.00 0.00 0.00 83 1006.0
20260505092542 67 178 8.0 23.0 0.00 0.00 0.00 83 1006.1
20260505092042 67 173 8.0 23.0 0.00 0.00 0.00 82 1006.1
20260505091549 67 203 9.0 16.0 0.00 0.00 0.00 82 1006.2
20260505091042 67 168 7.0 21.0 0.00 0.00 0.00 82 1006.1
20260505090538 67 203 8.0 22.0 0.00 0.00 0.00 82 1006.2
20260505090058 67 206 9.0 22.0 0.00 0.00 0.00 82 1006.2
20260505085542 67 168 8.0 21.0 0.00 0.00 0.00 82 1006.1
20260505085043 67 203 9.0 16.0 0.00 0.00 0.00 82 1006.2
20260505084552 67 141 8.0 16.0 0.00 0.00 0.00 82 1006.3
20260505084041 67 209 7.0 14.0 0.00 0.00 0.00 82 1006.3
20260505083542 67 119 7.0 20.0 0.00 0.00 0.00 82 1006.4
20260505083102 67 195 8.0 20.0 0.00 0.00 0.00 82 1006.6
20260505082541 67 132 8.0 15.0 0.00 0.00 0.00 82 1006.7
20260505082041 67 127 5.0 21.0 0.00 0.00 0.00 82 1006.6
20260505081558 67 134 7.0 21.0 0.00 0.00 0.00 81 1006.7
20260505081043 67 145 7.0 18.0 0.00 0.00 0.00 81 1006.7
20260505080538 67 159 7.0 19.0 0.00 0.00 0.00 81 1006.8
20260505080050 67 161 10.0 19.0 0.00 0.00 0.00 81 1006.7
20260505075541 67 137 6.0 17.0 0.00 0.00 0.00 81 1006.7
20260505075041 67 197 8.0 27.0 0.00 0.00 0.00 80 1006.8
20260505074549 67 167 7.0 27.0 0.00 0.00 0.00 80 1006.7
20260505074041 67 184 9.0 20.0 0.00 0.00 0.00 80 1006.8
20260505073541 67 193 8.0 22.0 0.00 0.00 0.00 79 1006.9
20260505073055 67 161 10.0 22.0 0.00 0.00 0.00 79 1006.8
20260505072540 67 159 11.0 22.0 0.00 0.00 0.00 79 1006.9
20260505072041 67 203 9.0 24.0 0.00 0.00 0.00 79 1007.0
20260505071550 67 177 9.0 24.0 0.00 0.00 0.00 79 1006.9
20260505071042 67 157 11.0 24.0 0.00 0.00 0.00 79 1007.1
20260505070544 67 150 8.0 24.0 0.00 0.00 0.00 79 1007.2
20260505070053 67 157 9.0 18.0 0.00 0.00 0.00 79 1007.2
20260505065543 67 160 10.0 20.0 0.00 0.00 0.00 79 1007.3
20260505065041 67 191 8.0 20.0 0.00 0.00 0.00 79 1007.4
20260505064556 67 150 8.0 19.0 0.00 0.00 0.00 78 1007.5
20260505064041 67 168 9.0 17.0 0.00 0.00 0.00 78 1007.4
20260505063541 67 143 7.0 18.0 0.00 0.00 0.00 78 1007.5
20260505063053 67 154 9.0 18.0 0.00 0.00 0.00 78 1007.6
20260505062542 67 165 8.0 18.0 0.00 0.00 0.00 78 1007.7
20260505062041 67 150 7.0 16.0 0.00 0.00 0.00 78 1007.8
20260505061552 67 159 8.0 17.0 0.00 0.00 0.00 77 1007.9
20260505061042 67 178 7.0 17.0 0.00 0.00 0.00 77 1008.0
20260505060542 67 209 9.0 17.0 0.00 0.00 0.00 77 1007.9
20260505060103 67 148 8.0 15.0 0.00 0.00 0.00 77 1007.9
20260505055543 67 154 7.0 16.0 0.00 0.00 0.00 77 1008.0
20260505055041 67 167 7.0 20.0 0.00 0.00 0.00 76 1007.9
20260505054558 67 175 9.0 20.0 0.00 0.00 0.00 76 1008.0
20260505054041 67 145 7.0 17.0 0.00 0.00 0.00 76 1008.0
20260505053614 67 155 8.0 16.0 0.00 0.00 0.00 76 1008.0
20260505053109 67 182 7.0 17.0 0.00 0.00 0.00 76 1008.1
20260505052541 67 193 7.0 17.0 0.00 0.00 0.00 75 1008.2
20260505052042 67 155 6.0 14.0 0.00 0.00 0.00 75 1008.1
20260505051555 67 130 6.0 16.0 0.00 0.00 0.00 75 1008.1
20260505051042 67 150 6.0 16.0 0.00 0.00 0.00 75 1008.2
20260505050541 68 184 7.0 15.0 0.00 0.00 0.00 75 1008.2
20260505041610 68 186 6.0 16.0 0.00 0.00 0.00 71 1008.5
20260505041042 68 172 9.0 16.0 0.00 0.00 0.00 71 1008.6
20260505040543 68 174 6.0 17.0 0.00 0.00 0.00 71 1008.5
20260505040051 68 238 6.0 17.0 0.00 0.00 0.00 70 1008.5
20260505035543 68 150 5.0 12.0 0.00 0.00 0.00 70 1008.5
20260505035045 68 200 4.0 13.0 0.00 0.00 0.00 70 1008.5
20260505034553 69 174 7.0 16.0 0.00 0.00 0.00 69 1008.5
20260505034045 69 99 6.0 16.0 0.00 0.00 0.00 69 1008.3
20260505033542 69 168 6.0 14.0 0.00 0.00 0.00 69 1008.5
20260505033049 69 177 7.0 15.0 0.00 0.00 0.00 69 1008.4
20260505032543 69 172 6.0 15.0 0.00 0.00 0.00 68 1008.3
20260505032040 69 114 8.0 15.0 0.00 0.00 0.00 68 1008.3
20260505031600 69 168 6.0 16.0 0.00 0.00 0.00 68 1008.3
20260505031044 69 188 5.0 16.0 0.00 0.00 0.00 68 1008.3
20260505030542 69 168 6.0 12.0 0.00 0.00 0.00 68 1008.3
20260505030056 69 143 5.0 11.0 0.00 0.00 0.00 68 1008.4
20260505025541 69 177 6.0 11.0 0.00 0.00 0.00 67 1008.5
20260505025041 69 168 5.0 11.0 0.00 0.00 0.00 67 1008.4
20260505024552 69 168 5.0 10.0 0.00 0.00 0.00 67 1008.3
20260505024040 69 161 4.0 10.0 0.00 0.00 0.00 67 1008.4
20260505023540 69 149 3.0 10.0 0.00 0.00 0.00 67 1008.3
20260505023100 69 0 4.0 9.0 0.00 0.00 0.00 67 1008.3
20260505022541 69 199 5.0 11.0 0.00 0.00 0.00 67 1008.3
20260505022040 69 195 5.0 11.0 0.00 0.00 0.00 67 1008.2
20260505021548 69 150 4.0 9.0 0.00 0.00 0.00 66 1008.1
20260505021040 69 157 2.0 9.0 0.00 0.00 0.00 66 1008.0
20260505020541 69 154 3.0 8.0 0.00 0.00 0.00 66 1007.9
20260505020048 69 152 5.0 8.0 0.00 0.00 0.00 66 1007.8
20260505015544 69 95 4.0 9.0 0.00 0.00 0.00 66 1007.7
20260505015041 70 168 2.0 9.0 0.00 0.00 0.00 65 1007.7
20260505014553 70 147 4.0 8.0 0.00 0.00 0.00 65 1007.6
20260505014038 70 197 4.0 8.0 0.00 0.00 0.00 64 1007.6
20260505013542 70 150 3.0 8.0 0.00 0.00 0.00 63 1007.7
20260505013054 71 151 3.0 8.0 0.00 0.00 0.00 62 1007.7
20260505012540 71 174 3.0 9.0 0.00 0.00 0.00 62 1007.7
20260505012042 71 157 4.0 10.0 0.00 0.00 0.00 62 1007.7
20260505011544 71 165 4.0 10.0 0.00 0.00 0.00 61 1007.7
20260505011041 72 154 4.0 11.0 0.00 0.00 0.00 60 1007.6
20260505010542 72 192 5.0 11.0 0.00 0.00 0.00 60 1007.9
20260505010051 73 154 5.0 11.0 0.00 0.00 0.00 59 1007.7
20260505005540 73 177 4.0 12.0 0.00 0.00 0.00 58 1007.9
20260505005040 73 167 5.0 14.0 0.00 0.00 0.00 58 1007.7
20260505004549 74 175 6.0 16.0 0.00 0.00 0.00 57 1007.8
20260505004041 74 163 7.0 16.0 0.00 0.00 0.00 57 1007.8
20260505003541 74 150 6.0 16.0 0.00 0.00 0.00 56 1007.9
20260505003050 74 165 6.0 20.0 0.00 0.00 0.00 56 1007.9
20260505002543 75 206 3.0 20.0 0.00 0.00 0.00 54 1007.9
20260505002041 75 134 9.0 23.0 0.00 0.00 0.00 54 1007.9
20260505001554 76 168 8.0 26.0 0.00 0.00 0.00 54 1007.8
20260505001041 76 178 11.0 26.0 0.00 0.00 0.00 53 1007.9
20260505000543 76 155 8.0 23.0 0.00 0.00 0.00 53 1007.7
20260505000055 77 195 9.0 16.0 0.00 0.00 0.00 53 1008.0
20260504235542 77 202 8.0 21.0 0.00 0.00 0.00 52 1008.0
20260504235041 78 186 9.0 21.0 0.00 0.00 0.00 51 1008.1
20260504234602 78 190 8.0 24.0 0.00 0.00 0.00 51 1008.1
20260504234040 78 150 9.0 24.0 0.00 0.00 0.00 51 1008.1
20260504233542 79 179 8.0 21.0 0.00 0.00 0.00 51 1008.2
20260504233046 79 197 10.0 22.0 0.00 0.00 0.00 50 1008.1
20260504232540 79 161 10.0 22.0 0.00 0.00 0.00 49 1008.2
20260504232040 79 208 5.0 19.0 0.00 0.00 0.00 49 1008.3
20260504231559 79 200 9.0 23.0 0.00 0.00 0.00 50 1008.3
20260504231042 79 136 11.0 23.0 0.00 0.00 0.00 49 1008.3
20260504230541 80 195 8.0 24.0 0.00 0.00 0.00 49 1008.4
20260504230052 80 175 10.0 26.0 0.00 0.00 0.00 48 1008.4
20260504225542 80 163 13.0 26.0 0.00 0.00 0.00 48 1008.5
20260504225042 80 179 12.0 22.0 0.00 0.00 0.00 48 1008.6
20260504224555 79 179 11.0 23.0 0.00 0.00 0.00 50 1008.6
20260504224042 80 172 11.0 23.0 0.00 0.00 0.00 49 1008.8
20260504223539 80 177 10.0 21.0 0.00 0.00 0.00 49 1008.8
20260504223055 80 199 9.0 21.0 0.00 0.00 0.00 50 1008.9
20260504222538 79 236 7.0 24.0 0.00 0.00 0.00 50 1008.9
20260504222041 79 215 11.0 25.0 0.00 0.00 0.00 51 1008.9
20260504221556 79 137 11.0 25.0 0.00 0.00 0.00 50 1009.0
20260504221039 79 150 5.0 21.0 0.00 0.00 0.00 51 1009.1
20260504220542 79 168 11.0 22.0 0.00 0.00 0.00 48 1009.0
20260504220053 81 205 9.0 24.0 0.00 0.00 0.00 47 1009.3
20260504215541 81 207 11.0 25.0 0.00 0.00 0.00 48 1009.2
20260504215042 81 209 14.0 25.0 0.00 0.00 0.00 47 1009.2
20260504214552 82 213 11.0 25.0 0.00 0.00 0.00 46 1009.5
20260504214040 81 159 13.0 25.0 0.00 0.00 0.00 47 1009.4
20260504213540 82 233 11.0 27.0 0.00 0.00 0.00 46 1009.7
20260504213053 82 167 13.0 27.0 0.00 0.00 0.00 46 1009.7
20260504212541 81 157 11.0 22.0 0.00 0.00 0.00 46 1009.9
20260504212041 82 167 8.0 26.0 0.00 0.00 0.00 47 1009.8
20260504211551 82 186 11.0 26.0 0.00 0.00 0.00 47 1009.9
20260504211042 82 222 13.0 26.0 0.00 0.00 0.00 44 1010.0
20260504210542 82 203 10.0 27.0 0.00 0.00 0.00 45 1010.1
20260504210104 82 195 13.0 28.0 0.00 0.00 0.00 45 1010.3
20260504205544 82 132 13.0 28.0 0.00 0.00 0.00 47 1010.3
20260504205042 82 134 13.0 24.0 0.00 0.00 0.00 46 1010.3
20260504204553 83 191 10.0 24.0 0.00 0.00 0.00 46 1010.4
20260504204043 83 185 8.0 24.0 0.00 0.00 0.00 47 1010.5
20260504203542 82 211 10.0 25.0 0.00 0.00 0.00 46 1010.6
20260504203052 82 167 11.0 25.0 0.00 0.00 0.00 45 1010.6
20260504202540 83 176 12.0 22.0 0.00 0.00 0.00 46 1010.8
20260504202040 83 163 11.0 24.0 0.00 0.00 0.00 46 1010.8
20260504201551 82 159 12.0 24.0 0.00 0.00 0.00 46 1011.0
20260504201040 82 129 9.0 23.0 0.00 0.00 0.00 48 1010.9
20260504200542 82 146 10.0 23.0 0.00 0.00 0.00 46 1011.1
20260504200051 82 231 8.0 24.0 0.00 0.00 0.00 46 1011.2
20260504195539 82 143 11.0 24.0 0.00 0.00 0.00 46 1011.4
20260504195042 82 165 9.0 27.0 0.00 0.00 0.00 46 1011.6
20260504194607 82 220 11.0 27.0 0.00 0.00 0.00 47 1011.6
20260504194041 82 168 8.0 25.0 0.00 0.00 0.00 48 1011.6
20260504193543 82 219 11.0 26.0 0.00 0.00 0.00 47 1011.7
20260504193044 82 161 12.0 26.0 0.00 0.00 0.00 47 1011.8
20260504192542 81 175 12.0 28.0 0.00 0.00 0.00 46 1011.8
20260504192040 81 174 13.0 28.0 0.00 0.00 0.00 47 1011.9
20260504191551 81 157 9.0 24.0 0.00 0.00 0.00 50 1012.0
20260504191040 81 177 8.0 21.0 0.00 0.00 0.00 47 1012.1
20260504190539 81 225 10.0 30.0 0.00 0.00 0.00 46 1012.2
20260504190113 80 211 11.0 30.0 0.00 0.00 0.00 48 1012.2
20260504185542 79 209 18.0 30.0 0.00 0.00 0.00 48 1012.3
20260504185040 80 224 11.0 25.0 0.00 0.00 0.00 46 1012.3
20260504184556 80 206 9.0 24.0 0.00 0.00 0.00 46 1012.7
20260504184043 80 224 11.0 24.0 0.00 0.00 0.00 47 1012.8
20260504183543 80 222 11.0 24.0 0.00 0.00 0.00 47 1012.7
20260504183050 80 199 10.0 25.0 0.00 0.00 0.00 49 1012.8
20260504182542 80 182 10.0 25.0 0.00 0.00 0.00 49 1012.9
20260504182042 79 223 11.0 25.0 0.00 0.00 0.00 48 1013.0
20260504181556 79 150 13.0 26.0 0.00 0.00 0.00 50 1013.2
20260504181039 78 215 14.0 26.0 0.00 0.00 0.00 48 1013.2
20260504180540 79 242 13.0 23.0 0.00 0.00 0.00 46 1013.4
20260504180143 79 201 9.0 38.0 0.00 0.00 0.00 48 1013.4
20260504175542 79 159 15.0 38.0 0.00 0.00 0.00 48 1013.5
20260504175044 79 235 14.0 28.0 0.00 0.00 0.00 49 1013.6
20260504174552 79 136 10.0 22.0 0.00 0.00 0.00 52 1013.6
20260504174045 79 198 8.0 22.0 0.00 0.00 0.00 50 1013.7
20260504173544 78 195 12.0 24.0 0.00 0.00 0.00 49 1013.7
20260504173102 79 195 9.0 24.0 0.00 0.00 0.00 49 1013.8
20260504172542 78 155 10.0 26.0 0.00 0.00 0.00 49 1013.8
20260504172042 78 233 10.0 26.0 0.00 0.00 0.00 49 1013.8
20260504171553 77 211 13.0 26.0 0.00 0.00 0.00 48 1013.9
20260504171117 77 242 13.0 24.0 0.00 0.00 0.00 48 1014.0
20260504170542 77 234 12.0 30.0 0.00 0.00 0.00 51 1013.9
20260504151042 71 200 11.0 27.0 0.00 0.00 0.00 59 1014.4
20260504150539 71 155 10.0 20.0 0.00 0.00 0.00 60 1014.3
20260504141042 66 190 6.0 23.0 0.00 0.00 0.00 68 1014.7
20260504140543 65 152 8.0 23.0 0.00 0.00 0.00 71 1014.8
20260504140112 65 185 8.0 20.0 0.00 0.00 0.00 72 1014.9